| time (UTC) | temp C | wind direction | speed KPH | gust KPH | rain 1hr cm | rain 24hr cm | rain mn cm | humidity % | barometer mb |
| 20260903005537 | 26 | 0.0 | 0.0 | 0.05 | 0.30 | 0.28 | 85 | 1019.3 | |
| 20260903004517 | 26 | 0.0 | 0.0 | 0.05 | 0.30 | 0.28 | 83 | 1019.2 | |
| 20260903003517 | 27 | 0.0 | 0.0 | 0.03 | 0.28 | 0.25 | 82 | 1019.1 | |
| 20260903002517 | 27 | 0.0 | 0.0 | 0.05 | 0.28 | 0.25 | 81 | 1019.0 | |
| 20260903001517 | 27 | 0.0 | 0.0 | 0.08 | 0.28 | 0.25 | 80 | 1019.0 | |
| 20260903000517 | 28 | 0.0 | 0.0 | 0.08 | 0.25 | 0.23 | 79 | 1019.0 | |
| 20260902235557 | 28 | 0.0 | 0.0 | 0.08 | 0.25 | 0.23 | 77 | 1018.9 | |
| 20260902234537 | 29 | 0.0 | 0.0 | 0.10 | 0.25 | 0.23 | 77 | 1018.9 | |
| 20260902233517 | 30 | 0.0 | 0.0 | 0.10 | 0.28 | 0.23 | 75 | 1018.9 | |
| 20260902232517 | 30 | 0.0 | 0.0 | 0.08 | 0.25 | 0.20 | 73 | 1018.8 | |
| 20260902231557 | 31 | 0.0 | 0.0 | 0.05 | 0.23 | 0.18 | 70 | 1018.8 | |
| 20260902230516 | 33 | 0.0 | 0.0 | 0.03 | 0.20 | 0.15 | 68 | 1019.0 | |
| 20260902225537 | 34 | 0.0 | 0.0 | 0.03 | 0.23 | 0.15 | 63 | 1018.9 | |
| 20260902224516 | 35 | 0.0 | 1.6 | 0.00 | 0.23 | 0.13 | 59 | 1018.9 | |
| 20260902223557 | 35 | 0.0 | 0.0 | 0.00 | 0.23 | 0.13 | 57 | 1018.8 | |
| 20260902222517 | 36 | 0.0 | 1.6 | 0.00 | 0.25 | 0.13 | 54 | 1018.9 | |
| 20260902221516 | 36 | 0.0 | 1.6 | 0.00 | 0.25 | 0.13 | 54 | 1018.9 | |
| 20260902220657 | 36 | 0.0 | 1.6 | 0.00 | 0.25 | 0.13 | 53 | 1018.9 | |
| 20260902215516 | 36 | 0.0 | 4.8 | 0.00 | 0.28 | 0.13 | 56 | 1019.0 | |
| 20260902214516 | 36 | 0.0 | 4.8 | 0.00 | 0.28 | 0.13 | 52 | 1019.0 | |
| 20260902213516 | 37 | 0.0 | 3.2 | 0.00 | 0.28 | 0.13 | 53 | 1019.1 | |
| 20260902212537 | 37 | 0.0 | 3.2 | 0.00 | 0.28 | 0.13 | 48 | 1019.1 | |
| 20260902211637 | 36 | 0.0 | 3.2 | 0.00 | 0.28 | 0.13 | 52 | 1019.1 | |
| 20260902210516 | 36 | 23 | 1.6 | 3.2 | 0.00 | 0.28 | 0.13 | 50 | 1019.1 |
| 20260902205516 | 36 | 23 | 1.6 | 4.8 | 0.00 | 0.28 | 0.13 | 52 | 1019.2 |
| 20260902204516 | 36 | 0.0 | 3.2 | 0.00 | 0.28 | 0.13 | 50 | 1019.2 | |
| 20260902203516 | 37 | 0.0 | 1.6 | 0.00 | 0.28 | 0.13 | 51 | 1019.2 | |
| 20260902202516 | 36 | 248 | 1.6 | 4.8 | 0.03 | 0.28 | 0.13 | 51 | 1019.3 |
| 20260902201516 | 36 | 0.0 | 4.8 | 0.03 | 0.28 | 0.13 | 52 | 1019.3 | |
| 20260902200537 | 36 | 0.0 | 4.8 | 0.03 | 0.28 | 0.13 | 51 | 1019.3 | |
| 20260902195636 | 36 | 23 | 3.2 | 9.7 | 0.03 | 0.28 | 0.13 | 53 | 1019.5 |
| 20260902194536 | 36 | 0.0 | 1.6 | 0.05 | 0.28 | 0.13 | 54 | 1019.6 | |
| 20260902193516 | 36 | 293 | 1.6 | 4.8 | 0.05 | 0.28 | 0.13 | 53 | 1019.7 |
| 20260902192516 | 35 | 248 | 1.6 | 4.8 | 0.03 | 0.25 | 0.10 | 56 | 1019.8 |
| 20260902191516 | 34 | 0.0 | 4.8 | 0.03 | 0.25 | 0.10 | 59 | 1019.8 | |
| 20260902190516 | 35 | 45 | 1.6 | 6.4 | 0.03 | 0.25 | 0.10 | 55 | 1019.9 |
| 20260902185516 | 35 | 315 | 1.6 | 4.8 | 0.03 | 0.25 | 0.10 | 56 | 1020.1 |
| 20260902184516 | 35 | 0.0 | 3.2 | 0.00 | 0.23 | 0.08 | 58 | 1020.2 | |
| 20260902183516 | 35 | 0.0 | 4.8 | 0.00 | 0.23 | 0.08 | 57 | 1020.2 | |
| 20260902182516 | 35 | 315 | 1.6 | 9.7 | 0.00 | 0.23 | 0.08 | 60 | 1020.4 |
| 20260902181516 | 34 | 225 | 1.6 | 4.8 | 0.00 | 0.23 | 0.08 | 60 | 1020.3 |
| 20260902180516 | 34 | 45 | 1.6 | 6.4 | 0.00 | 0.23 | 0.08 | 58 | 1020.3 |
| 20260902175516 | 33 | 270 | 1.6 | 6.4 | 0.00 | 0.23 | 0.08 | 59 | 1020.3 |
| 20260902174536 | 33 | 0.0 | 0.0 | 0.00 | 0.23 | 0.08 | 63 | 1020.5 | |
| 20260902173516 | 33 | 23 | 3.2 | 8.0 | 0.00 | 0.23 | 0.08 | 57 | 1020.6 |
| 20260902172516 | 33 | 248 | 1.6 | 4.8 | 0.00 | 0.23 | 0.08 | 58 | 1020.7 |
| 20260902171616 | 33 | 248 | 1.6 | 9.7 | 0.00 | 0.23 | 0.08 | 58 | 1020.8 |
| 20260902170516 | 33 | 293 | 1.6 | 6.4 | 0.00 | 0.23 | 0.08 | 62 | 1020.9 |
| 20260902165516 | 33 | 0.0 | 1.6 | 0.00 | 0.23 | 0.08 | 62 | 1021.1 | |
| 20260902164536 | 33 | 0.0 | 1.6 | 0.00 | 0.23 | 0.08 | 62 | 1021.2 | |
| 20260902163636 | 32 | 23 | 1.6 | 4.8 | 0.03 | 0.23 | 0.08 | 61 | 1021.2 |
| 20260902162516 | 32 | 45 | 1.6 | 3.2 | 0.03 | 0.23 | 0.08 | 63 | 1021.3 |
| 20260902161536 | 32 | 0.0 | 3.2 | 0.03 | 0.23 | 0.08 | 64 | 1021.3 | |
| 20260902160516 | 32 | 0.0 | 3.2 | 0.03 | 0.23 | 0.08 | 62 | 1021.4 | |
| 20260902154516 | 31 | 0.0 | 1.6 | 0.03 | 0.23 | 0.08 | 69 | 1021.4 | |
| 20260902153516 | 31 | 0.0 | 1.6 | 0.00 | 0.20 | 0.05 | 70 | 1021.5 | |
| 20260902152556 | 31 | 0.0 | 1.6 | 0.00 | 0.20 | 0.05 | 66 | 1021.4 | |
| 20260902151556 | 31 | 0.0 | 1.6 | 0.00 | 0.20 | 0.05 | 71 | 1021.4 | |
| 20260902150516 | 30 | 0.0 | 6.4 | 0.00 | 0.20 | 0.05 | 72 | 1021.3 | |
| 20260902145616 | 30 | 0.0 | 3.2 | 0.00 | 0.20 | 0.05 | 72 | 1021.3 | |
| 20260902144516 | 30 | 0.0 | 3.2 | 0.00 | 0.20 | 0.05 | 73 | 1021.3 | |
| 20260902143516 | 30 | 0.0 | 3.2 | 0.00 | 0.20 | 0.05 | 73 | 1021.2 | |
| 20260902142516 | 28 | 0.0 | 3.2 | 0.00 | 0.23 | 0.05 | 80 | 1021.1 | |
| 20260902141616 | 28 | 0.0 | 1.6 | 0.00 | 0.23 | 0.05 | 83 | 1021.0 | |
| 20260902140616 | 27 | 0.0 | 1.6 | 0.03 | 0.23 | 0.05 | 88 | 1021.0 | |
| 20260902135516 | 26 | 0.0 | 0.0 | 0.03 | 0.23 | 0.05 | 92 | 1021.0 | |
| 20260902134516 | 26 | 0.0 | 0.0 | 0.03 | 0.23 | 0.05 | 96 | 1021.0 | |
| 20260902133516 | 25 | 0.0 | 0.0 | 0.03 | 0.23 | 0.05 | 99 | 1021.0 | |
| 20260902132556 | 25 | 0.0 | 0.0 | 0.03 | 0.23 | 0.05 | 100 | 1020.9 | |
| 20260902131515 | 24 | 0.0 | 0.0 | 0.03 | 0.23 | 0.05 | 100 | 1021.0 | |
| 20260902130536 | 23 | 0.0 | 0.0 | 0.00 | 0.20 | 0.03 | 100 | 1021.1 | |
| 20260902125556 | 23 | 0.0 | 0.0 | 0.00 | 0.20 | 0.03 | 100 | 1021.0 | |
| 20260902124515 | 22 | 0.0 | 0.0 | 0.00 | 0.20 | 0.03 | 100 | 1021.0 | |
| 20260902123535 | 22 | 0.0 | 0.0 | 0.00 | 0.20 | 0.03 | 100 | 1020.9 | |
| 20260902122515 | 21 | 0.0 | 0.0 | 0.00 | 0.20 | 0.03 | 99 | 1021.1 | |
| 20260902121556 | 21 | 0.0 | 0.0 | 0.00 | 0.20 | 0.03 | 99 | 1021.1 | |
| 20260902120657 | 21 | 0.0 | 0.0 | 0.00 | 0.20 | 0.03 | 99 | 1021.0 | |
| 20260902115515 | 21 | 0.0 | 0.0 | 0.00 | 0.20 | 0.03 | 99 | 1021.0 | |
| 20260902114615 | 21 | 0.0 | 0.0 | 0.00 | 0.20 | 0.03 | 99 | 1020.8 | |
| 20260902113535 | 20 | 0.0 | 0.0 | 0.00 | 0.20 | 0.03 | 99 | 1020.7 | |
| 20260902112636 | 20 | 0.0 | 0.0 | 0.00 | 0.20 | 0.03 | 99 | 1020.8 | |
| 20260902111515 | 20 | 0.0 | 0.0 | 0.00 | 0.20 | 0.03 | 99 | 1020.8 | |
| 20260902110616 | 20 | 0.0 | 0.0 | 0.00 | 0.20 | 0.03 | 99 | 1020.7 | |
| 20260902105555 | 20 | 0.0 | 0.0 | 0.00 | 0.20 | 0.03 | 99 | 1020.8 | |
| 20260902104535 | 20 | 0.0 | 0.0 | 0.00 | 0.20 | 0.03 | 98 | 1020.7 | |
| 20260902103515 | 20 | 0.0 | 0.0 | 0.00 | 0.20 | 0.03 | 98 | 1020.5 | |
| 20260902102515 | 20 | 0.0 | 0.0 | 0.00 | 0.20 | 0.03 | 98 | 1020.6 | |
| 20260902101515 | 20 | 0.0 | 0.0 | 0.00 | 0.20 | 0.03 | 98 | 1020.6 | |
| 20260902100636 | 20 | 0.0 | 0.0 | 0.00 | 0.20 | 0.03 | 98 | 1020.5 | |
| 20260902095515 | 21 | 0.0 | 0.0 | 0.00 | 0.20 | 0.03 | 98 | 1020.5 | |
| 20260902094515 | 21 | 0.0 | 0.0 | 0.00 | 0.20 | 0.03 | 98 | 1020.5 | |
| 20260902093515 | 21 | 0.0 | 0.0 | 0.00 | 0.20 | 0.03 | 98 | 1020.6 | |
| 20260902092515 | 21 | 0.0 | 0.0 | 0.00 | 0.20 | 0.03 | 98 | 1020.5 | |
| 20260902091515 | 21 | 0.0 | 0.0 | 0.00 | 0.20 | 0.03 | 98 | 1020.5 | |
| 20260902090517 | 21 | 0.0 | 0.0 | 0.00 | 0.20 | 0.03 | 98 | 1020.5 | |
| 20260902085535 | 21 | 0.0 | 0.0 | 0.00 | 0.20 | 0.03 | 98 | 1020.5 | |
| 20260902084537 | 21 | 0.0 | 0.0 | 0.00 | 0.20 | 0.03 | 98 | 1020.3 | |
| 20260902083517 | 21 | 0.0 | 0.0 | 0.00 | 0.20 | 0.03 | 98 | 1020.2 | |
| 20260902082537 | 21 | 0.0 | 0.0 | 0.00 | 0.20 | 0.03 | 98 | 1020.1 | |
| 20260902080637 | 21 | 0.0 | 0.0 | 0.00 | 0.20 | 0.03 | 98 | 1020.1 | |
| 20260902075557 | 21 | 0.0 | 0.0 | 0.00 | 0.20 | 0.03 | 98 | 1020.1 | |
| 20260902074517 | 21 | 0.0 | 0.0 | 0.00 | 0.20 | 0.03 | 98 | 1020.0 | |
| 20260902073517 | 21 | 0.0 | 0.0 | 0.00 | 0.20 | 0.03 | 98 | 1020.0 | |
| 20260902072517 | 21 | 0.0 | 0.0 | 0.03 | 0.20 | 0.03 | 98 | 1020.0 | |
| 20260902071638 | 21 | 0.0 | 0.0 | 0.03 | 0.20 | 0.03 | 98 | 1020.0 | |
| 20260902070537 | 21 | 0.0 | 0.0 | 0.03 | 0.20 | 0.03 | 98 | 1020.1 | |
| 20260902065517 | 21 | 0.0 | 0.0 | 0.03 | 0.20 | 0.03 | 97 | 1020.1 | |
| 20260902064517 | 21 | 0.0 | 0.0 | 0.03 | 0.20 | 0.03 | 97 | 1020.1 | |
| 20260902063537 | 21 | 0.0 | 0.0 | 0.03 | 0.20 | 0.03 | 97 | 1020.1 | |
| 20260902061517 | 21 | 0.0 | 0.0 | 0.00 | 0.18 | 0.00 | 97 | 1020.1 | |
| 20260902060517 | 21 | 0.0 | 0.0 | 0.00 | 0.18 | 0.00 | 97 | 1020.1 | |
| 20260902055517 | 22 | 0.0 | 0.0 | 0.00 | 0.18 | 0.00 | 97 | 1020.1 | |
| 20260902054617 | 22 | 0.0 | 0.0 | 0.00 | 0.18 | 0.00 | 97 | 1020.1 | |
| 20260902053557 | 22 | 0.0 | 0.0 | 0.00 | 0.18 | 0.00 | 97 | 1020.0 | |
| 20260902052537 | 22 | 0.0 | 0.0 | 0.00 | 0.18 | 0.00 | 97 | 1020.0 | |
| 20260902051557 | 22 | 0.0 | 0.0 | 0.00 | 0.18 | 0.00 | 97 | 1019.9 | |
| 20260902050537 | 22 | 0.0 | 0.0 | 0.00 | 0.18 | 0.00 | 96 | 1019.9 | |
| 20260902045537 | 22 | 0.0 | 0.0 | 0.00 | 0.18 | 0.00 | 96 | 1019.8 | |
| 20260902044517 | 22 | 0.0 | 0.0 | 0.00 | 0.18 | 0.00 | 96 | 1019.7 | |
| 20260902043557 | 22 | 0.0 | 0.0 | 0.00 | 0.18 | 0.00 | 96 | 1019.8 | |
| 20260902042557 | 22 | 0.0 | 0.0 | 0.00 | 0.18 | 0.00 | 96 | 1019.7 | |
| 20260902041537 | 22 | 0.0 | 0.0 | 0.00 | 0.18 | 0.00 | 96 | 1019.6 | |
| 20260902040537 | 22 | 0.0 | 0.0 | 0.00 | 0.18 | 0.00 | 96 | 1019.7 | |
| 20260902035617 | 22 | 0.0 | 0.0 | 0.03 | 0.18 | 0.18 | 95 | 1019.8 | |
| 20260902034517 | 22 | 0.0 | 0.0 | 0.03 | 0.18 | 0.18 | 95 | 1019.8 | |
| 20260902033517 | 22 | 0.0 | 0.0 | 0.03 | 0.18 | 0.18 | 95 | 1019.7 | |
| 20260902032517 | 22 | 0.0 | 0.0 | 0.03 | 0.18 | 0.18 | 95 | 1019.6 | |
| 20260902031517 | 23 | 0.0 | 0.0 | 0.03 | 0.18 | 0.18 | 94 | 1019.6 | |
| 20260902030517 | 23 | 0.0 | 0.0 | 0.03 | 0.20 | 0.18 | 94 | 1019.6 | |
| 20260902025557 | 23 | 0.0 | 0.0 | 0.00 | 0.18 | 0.15 | 94 | 1019.5 | |
| 20260902024637 | 23 | 0.0 | 0.0 | 0.00 | 0.18 | 0.15 | 94 | 1019.6 | |
| 20260902023517 | 23 | 0.0 | 0.0 | 0.00 | 0.18 | 0.15 | 93 | 1019.7 | |
| 20260902022517 | 23 | 0.0 | 0.0 | 0.00 | 0.18 | 0.15 | 93 | 1019.6 | |
| 20260902021557 | 23 | 0.0 | 1.6 | 0.00 | 0.18 | 0.15 | 93 | 1019.5 | |
| 20260902020517 | 23 | 0.0 | 0.0 | 0.00 | 0.18 | 0.15 | 92 | 1019.3 | |
| 20260902015557 | 23 | 0.0 | 0.0 | 0.00 | 0.18 | 0.15 | 92 | 1019.1 | |
| 20260902014537 | 23 | 0.0 | 0.0 | 0.00 | 0.18 | 0.15 | 91 | 1018.9 | |
| 20260902013537 | 24 | 0.0 | 0.0 | 0.00 | 0.18 | 0.15 | 91 | 1018.9 | |
| 20260902012517 | 24 | 0.0 | 0.0 | 0.00 | 0.18 | 0.15 | 90 | 1018.7 | |
| 20260902011517 | 24 | 0.0 | 0.0 | 0.00 | 0.18 | 0.15 | 89 | 1018.6 | |
| 20260902010517 | 25 | 0.0 | 0.0 | 0.00 | 0.18 | 0.15 | 88 | 1018.7 |